Retour au catalogue

CZ-6A DEB

ActifSSO
NORAD 57575·DEBRIS·🇨🇳 China

Lancé Nov 11, 2022 depuis Taiyuan Satellite Launch Center

Loading…

Prochains Passages (prochaines 24 heures)

TLE

FraisSource: Space-Track

Époque: Sep 13, 2026, 10:43 UTC

1 57575U 22151AHS 26256.44655235  .00002370  00000-0  10774-2 0  9998
2 57575  98.8109 262.7229 0045258  44.9222 315.5603 14.22189059183807

Suivez CZ-6A DEB en temps réel avec AllMySat

Download on the App Store